Home > Weather > Itabuna > Past weeks

Flag for Brazil Past Weather in Itabuna, Bahia, Brazil — Yesterday and Last 2 Weeks

Now
82 °F

Scattered clouds.


Feels Like: 85 °F
Forecast: 65 / 80 °F
Wind: 13 mph from Southeast

Location: Salvador Aeroporto

Current Time: Jul 1, 2016 at 10:31:21 AM

Latest Report: Jul 1, 2016 at 10:00 AM


Visibility: N/A

Pressure: 30.15 "Hg

Humidity: 62%

Dew Point: 68 °F

Location of ItabunaLocation

Past Weather in Itabuna — Graph

°F

Itabuna Temperature Yesterday

Maximum temperature yesterday: 82 °F (at 11:00 AM)
Minimum temperature yesterday: 73 °F (at 1:00 AM)
Average temperature yesterday: 78 °F

High & Low Weather Summary for the Past Weeks

 TemperatureHumidityPressure
High84 °F (Jun 19, 11:00 AM)100% (Jun 18, 7:00 PM)30.18 "Hg (Jun 18, 7:00 PM)
Low39 °F (Jun 18, 7:00 PM)48% (Jun 27, 3:00 PM)30.04 "Hg (Jun 17, 2:00 PM)
Average78 °F69%30.10 "Hg
* Reported Jun 16 9:00 AM — Jul 1 9:00 AM, Itabuna, Weather by CustomWeather, © 2016

Note: Actual official high and low records may vary slightly from our data, if they occured in-between our weather recording intervals... More about our weather records

Advertising

Itabuna Weather History for the Previous 24 Hours

Scroll right to see more
 ConditionsComfort  
Time TempWeatherWind HumidityBarometerVisibility
9:00 AM
Fri, Jul 1
81 °FScattered clouds.10 mph62%30.15 "HgN/A
8:00 AM81 °FPassing clouds.9 mph58%30.15 "HgN/A
7:00 AM79 °FPassing clouds.12 mph61%30.12 "HgN/A
6:00 AM77 °FScattered clouds.14 mph61%30.09 "HgN/A
5:00 AM77 °FPassing clouds.9 mph61%30.09 "HgN/A
4:00 AM77 °FPartly cloudy.14 mph65%30.09 "HgN/A
3:00 AM77 °FPassing clouds.15 mph61%30.09 "HgN/A
2:00 AM77 °FPartly cloudy.13 mph65%30.09 "HgN/A
1:00 AM77 °FPartly cloudy.14 mph74%30.12 "HgN/A
12:00 AM77 °FPartly cloudy.8 mph74%30.12 "HgN/A
11:00 PM
Thu, Jun 30
77 °FPartly cloudy.12 mph74%30.12 "HgN/A
10:00 PM77 °FPartly cloudy.16 mph74%30.12 "HgN/A
9:00 PM75 °FPartly cloudy.5 mph74%30.15 "HgN/A
8:00 PM75 °FPartly cloudy.7 mph83%30.12 "Hg5 mi
6:00 PM73 °FPartly cloudy.8 mph83%30.09 "Hg5 mi
5:00 PM79 °FScattered clouds.14 mph74%30.09 "HgN/A
4:00 PM79 °FScattered clouds.14 mph74%30.09 "HgN/A
3:00 PM79 °FScattered clouds.14 mph79%30.07 "HgN/A
2:00 PM82 °FBroken clouds.12 mph66%30.09 "HgN/A
1:00 PM82 °FBroken clouds.15 mph66%30.12 "HgN/A
12:00 PM81 °FScattered clouds.16 mph70%30.12 "HgN/A
11:00 AM82 °FScattered clouds.14 mph66%30.15 "HgN/A
10:00 AM79 °FScattered clouds.12 mph79%30.15 "HgN/A
Weather by CustomWeather, © 2016

See weather overviewHow to use our weather pages